Time,TemperatureF,DewpointF,PressureIn,WindDirection,WindDirectionDegrees,WindSpeedMPH,WindSpeedGustMPH,Humidity,HourlyPrecipIn,Conditions,Clouds,dailyrainin,SoftwareType,DateUTC
2013-07-13 07:03:00,68.5,59.5,29.87,N/A,-737280,0.0,-999.0,73,0.00,,,0.05,Wunderground v.1.15,2013-07-13 13:03:00,
2013-07-13 07:08:00,68.9,59.9,29.87,N/A,-737280,0.0,-999.0,73,0.00,,,0.05,Wunderground v.1.15,2013-07-13 13:08:00,
2013-07-13 07:13:00,69.2,60.2,29.87,N/A,-737280,0.0,-999.0,73,0.00,,,0.05,Wunderground v.1.15,2013-07-13 13:13:00,
2013-07-13 07:18:00,69.4,59.2,29.87,N/A,-737280,0.0,-999.0,70,0.00,,,0.05,Wunderground v.1.15,2013-07-13 13:18:00,
2013-07-13 07:23:00,70.0,59.4,29.88,NNE,23,0.0,-999.0,69,0.00,,,0.05,Wunderground v.1.15,2013-07-13 13:23:00,
2013-07-13 07:28:00,70.5,59.8,29.86,N/A,-737280,0.0,-999.0,69,0.00,,,0.05,Wunderground v.1.15,2013-07-13 13:28:00,
2013-07-13 07:33:00,70.9,59.8,29.86,N/A,-737280,0.0,-999.0,68,0.00,,,0.05,Wunderground v.1.15,2013-07-13 13:33:00,
2013-07-13 07:38:00,71.3,58.9,29.86,NNE,23,0.0,-999.0,65,0.00,,,0.05,Wunderground v.1.15,2013-07-13 13:38:00,
2013-07-13 07:43:00,71.8,58.1,29.87,N/A,-737280,0.0,-999.0,62,0.00,,,0.05,Wunderground v.1.15,2013-07-13 13:43:00,
2013-07-13 08:05:00,73.2,58.9,29.87,NNE,18,0.0,0.0,61,0.00,,,0.05,Wunderground v.1.15,2013-07-13 14:05:00,
2013-07-13 08:10:00,73.5,58.3,29.87,NNE,18,0.0,0.0,59,0.00,,,0.05,Wunderground v.1.15,2013-07-13 14:10:00,
2013-07-13 08:15:00,73.8,57.1,29.87,NNE,18,0.0,0.0,56,0.00,,,0.05,Wunderground v.1.15,2013-07-13 14:15:00,
2013-07-13 08:19:00,74.1,57.9,29.87,NNE,18,0.0,0.0,57,0.00,,,0.05,Wunderground v.1.15,2013-07-13 14:19:00,
2013-07-13 08:24:00,74.4,57.7,29.88,NNE,18,0.0,0.0,56,0.00,,,0.05,Wunderground v.1.15,2013-07-13 14:24:00,
2013-07-13 08:29:00,74.8,57.5,29.88,NNE,18,0.0,0.0,55,0.00,,,0.05,Wunderground v.1.15,2013-07-13 14:29:00,
2013-07-13 08:34:00,75.1,58.8,29.88,NNE,18,0.0,0.0,57,0.00,,,0.05,Wunderground v.1.15,2013-07-13 14:34:00,
2013-07-13 08:40:00,75.4,58.1,29.88,NNE,17,0.0,2.0,55,0.00,,,0.05,Wunderground v.1.15,2013-07-13 14:40:00,
2013-07-13 08:45:00,75.8,58.0,29.88,NNE,17,1.0,2.0,54,0.00,,,0.05,Wunderground v.1.15,2013-07-13 14:45:00,
2013-07-13 08:55:00,76.2,57.3,29.88,North,355,1.0,2.0,52,0.00,,,0.05,Wunderground v.1.15,2013-07-13 14:55:00,
2013-07-13 09:00:00,76.4,57.5,29.88,North,355,1.0,1.0,52,0.00,,,0.05,Wunderground v.1.15,2013-07-13 15:00:00,
2013-07-13 09:05:00,76.5,57.6,29.88,North,355,1.0,1.0,52,0.00,,,0.05,Wunderground v.1.15,2013-07-13 15:05:00,
2013-07-13 09:10:00,76.6,57.1,29.88,North,355,0.0,0.0,51,0.00,,,0.05,Wunderground v.1.15,2013-07-13 15:10:00,
2013-07-13 09:15:00,76.7,57.2,29.88,North,355,0.0,0.0,51,0.00,,,0.05,Wunderground v.1.15,2013-07-13 15:15:00,
2013-07-13 09:20:00,76.9,56.8,29.88,North,355,0.0,0.0,50,0.00,,,0.05,Wunderground v.1.15,2013-07-13 15:20:00,
2013-07-13 09:24:00,77.1,57.0,29.88,North,355,0.0,0.0,50,0.00,,,0.05,Wunderground v.1.15,2013-07-13 15:24:00,
2013-07-13 09:29:00,77.4,57.3,29.88,North,355,0.0,0.0,50,0.00,,,0.05,Wunderground v.1.15,2013-07-13 15:29:00,
2013-07-13 09:34:00,77.7,57.0,29.88,North,355,0.0,0.0,49,0.00,,,0.05,Wunderground v.1.15,2013-07-13 15:34:00,
2013-07-13 09:39:00,78.0,56.1,29.88,North,355,0.0,1.0,47,0.00,,,0.05,Wunderground v.1.15,2013-07-13 15:39:00,
2013-07-13 09:44:00,78.4,56.5,29.88,North,355,0.0,1.0,47,0.00,,,0.05,Wunderground v.1.15,2013-07-13 15:44:00,
2013-07-13 09:49:00,78.7,56.2,29.88,North,355,0.0,0.0,46,0.00,,,0.05,Wunderground v.1.15,2013-07-13 15:49:00,
2013-07-13 09:55:00,79.2,56.0,29.88,North,355,0.0,0.0,45,0.00,,,0.05,Wunderground v.1.15,2013-07-13 15:55:00,
2013-07-13 10:00:00,79.4,55.6,29.88,North,355,0.0,0.0,44,0.00,,,0.05,Wunderground v.1.15,2013-07-13 16:00:00,
2013-07-13 10:05:00,79.6,57.0,29.88,North,355,0.0,0.0,46,0.00,,,0.05,Wunderground v.1.15,2013-07-13 16:05:00,
2013-07-13 10:10:00,79.9,57.3,29.87,North,355,0.0,0.0,46,0.00,,,0.05,Wunderground v.1.15,2013-07-13 16:10:00,
2013-07-13 10:15:00,80.2,56.9,29.87,North,355,0.0,0.0,45,0.00,,,0.05,Wunderground v.1.15,2013-07-13 16:15:00,
2013-07-13 10:20:00,80.5,55.9,29.87,North,355,0.0,0.0,43,0.00,,,0.05,Wunderground v.1.15,2013-07-13 16:20:00,
2013-07-13 10:30:00,80.9,55.7,29.87,North,355,0.0,1.0,42,0.00,,,0.05,Wunderground v.1.15,2013-07-13 16:30:00,
2013-07-13 10:35:00,81.1,56.5,29.87,North,355,0.0,1.0,43,0.00,,,0.05,Wunderground v.1.15,2013-07-13 16:35:00,
2013-07-13 10:39:00,81.5,54.8,29.87,North,355,0.0,0.0,40,0.00,,,0.05,Wunderground v.1.15,2013-07-13 16:39:00,
2013-07-13 10:44:00,81.9,55.2,29.87,North,355,0.0,0.0,40,0.00,,,0.05,Wunderground v.1.15,2013-07-13 16:44:00,
2013-07-13 10:49:00,82.3,55.6,29.87,North,355,0.0,0.0,40,0.00,,,0.05,Wunderground v.1.15,2013-07-13 16:49:00,
2013-07-13 10:54:00,82.5,55.0,29.87,North,355,0.0,0.0,39,0.00,,,0.05,Wunderground v.1.15,2013-07-13 16:54:00,
2013-07-13 11:00:00,82.7,56.6,29.87,North,355,0.0,0.0,41,0.00,,,0.05,Wunderground v.1.15,2013-07-13 17:00:00,
2013-07-13 11:05:00,83.1,54.9,29.87,North,355,0.0,0.0,38,0.00,,,0.05,Wunderground v.1.15,2013-07-13 17:05:00,
2013-07-13 11:15:00,83.7,55.4,29.87,North,355,0.0,0.0,38,0.00,,,0.05,Wunderground v.1.15,2013-07-13 17:15:00,
2013-07-13 11:20:00,84.0,53.4,29.87,North,355,0.0,0.0,35,0.00,,,0.05,Wunderground v.1.15,2013-07-13 17:20:00,
2013-07-13 11:25:00,84.3,54.4,29.87,North,355,0.0,0.0,36,0.00,,,0.05,Wunderground v.1.15,2013-07-13 17:25:00,
2013-07-13 11:29:00,84.6,56.2,29.87,North,351,0.0,1.0,38,0.19,,,0.18,Wunderground v.1.15,2013-07-13 17:29:00,
2013-07-13 11:34:00,84.7,54.0,29.86,North,351,0.0,1.0,35,0.07,,,0.18,Wunderground v.1.15,2013-07-13 17:34:00,
2013-07-13 11:39:00,84.7,55.5,29.86,North,351,0.0,0.0,37,0.05,,,0.18,Wunderground v.1.15,2013-07-13 17:39:00,
2013-07-13 11:44:00,85.0,55.1,29.86,North,351,0.0,0.0,36,0.00,,,0.18,Wunderground v.1.15,2013-07-13 17:44:00,
2013-07-13 11:49:00,85.4,54.6,29.86,North,351,0.0,0.0,35,0.00,,,0.18,Wunderground v.1.15,2013-07-13 17:49:00,
2013-07-13 11:54:00,85.7,54.1,29.85,North,351,0.0,0.0,34,0.00,,,0.18,Wunderground v.1.15,2013-07-13 17:54:00,
2013-07-13 12:00:00,85.9,54.3,29.85,North,351,0.0,0.0,34,0.00,,,0.18,Wunderground v.1.15,2013-07-13 18:00:00,
2013-07-13 12:05:00,86.1,54.5,29.85,North,351,0.0,0.0,34,0.00,,,0.18,Wunderground v.1.15,2013-07-13 18:05:00,
2013-07-13 12:10:00,86.3,53.8,29.84,NNW,339,1.0,1.0,33,0.00,,,0.18,Wunderground v.1.15,2013-07-13 18:10:00,
2013-07-13 12:15:00,86.5,54.0,29.84,NNW,339,1.0,1.0,33,0.00,,,0.18,Wunderground v.1.15,2013-07-13 18:15:00,
2013-07-13 12:20:00,87.0,54.4,29.84,NNW,339,0.0,0.0,33,0.00,,,0.18,Wunderground v.1.15,2013-07-13 18:20:00,
2013-07-13 12:25:00,87.4,54.8,29.84,NNW,339,0.0,0.0,33,0.00,,,0.18,Wunderground v.1.15,2013-07-13 18:25:00,
2013-07-13 12:29:00,87.7,53.3,29.84,NNW,339,0.0,2.0,31,0.00,,,0.18,Wunderground v.1.15,2013-07-13 18:29:00,
2013-07-13 12:34:00,87.9,53.5,29.84,NNW,339,0.0,2.0,31,0.00,,,0.18,Wunderground v.1.15,2013-07-13 18:34:00,
2013-07-13 12:39:00,88.2,54.6,29.84,NNW,338,0.0,1.0,32,0.00,,,0.18,Wunderground v.1.15,2013-07-13 18:39:00,
2013-07-13 12:44:00,88.3,52.9,29.83,NNW,338,0.0,1.0,30,0.00,,,0.18,Wunderground v.1.15,2013-07-13 18:44:00,
2013-07-13 12:50:00,88.5,53.1,29.84,NNW,338,0.0,0.0,30,0.00,,,0.18,Wunderground v.1.15,2013-07-13 18:50:00,
2013-07-13 12:55:00,88.1,52.8,29.84,NNW,338,0.0,0.0,30,0.00,,,0.18,Wunderground v.1.15,2013-07-13 18:55:00,
2013-07-13 13:05:00,87.3,53.0,29.84,NNW,338,0.0,0.0,31,0.00,,,0.18,Wunderground v.1.15,2013-07-13 19:05:00,
2013-07-13 13:10:00,87.1,53.7,29.83,NNW,338,0.0,0.0,32,0.00,,,0.18,Wunderground v.1.15,2013-07-13 19:10:00,
2013-07-13 13:15:00,86.8,52.5,29.83,NNW,338,0.0,0.0,31,0.00,,,0.18,Wunderground v.1.15,2013-07-13 19:15:00,
2013-07-13 13:20:00,86.7,54.2,29.82,NNW,338,0.0,0.0,33,0.00,,,0.18,Wunderground v.1.15,2013-07-13 19:20:00,
2013-07-13 13:25:00,86.8,53.4,29.82,NNW,338,0.0,0.0,32,0.00,,,0.18,Wunderground v.1.15,2013-07-13 19:25:00,
2013-07-13 13:30:00,87.4,53.1,29.82,NNW,338,0.0,2.0,31,0.00,,,0.18,Wunderground v.1.15,2013-07-13 19:30:00,
2013-07-13 13:39:00,88.9,53.5,29.82,NE,51,1.0,2.0,30,0.00,,,0.18,Wunderground v.1.15,2013-07-13 19:39:00,
2013-07-13 13:44:00,89.1,54.5,29.82,NE,51,1.0,2.0,31,0.00,,,0.18,Wunderground v.1.15,2013-07-13 19:44:00,
2013-07-13 13:49:00,89.3,52.9,29.82,NE,51,1.0,1.0,29,0.00,,,0.18,Wunderground v.1.15,2013-07-13 19:49:00,
2013-07-13 13:55:00,89.3,52.9,29.82,NE,51,1.0,1.0,29,0.00,,,0.18,Wunderground v.1.15,2013-07-13 19:55:00,
2013-07-13 14:00:00,89.3,52.9,29.82,NE,51,0.0,0.0,29,0.00,,,0.18,Wunderground v.1.15,2013-07-13 20:00:00,
2013-07-13 14:05:00,89.6,53.1,29.81,NE,51,0.0,1.0,29,0.00,,,0.18,Wunderground v.1.15,2013-07-13 20:05:00,
2013-07-13 14:10:00,89.8,53.3,29.81,NE,51,1.0,1.0,29,0.00,,,0.18,Wunderground v.1.15,2013-07-13 20:10:00,
2013-07-13 14:20:00,90.2,53.6,29.81,NE,49,0.0,0.0,29,0.00,,,0.18,Wunderground v.1.15,2013-07-13 20:20:00,
2013-07-13 14:25:00,90.5,53.9,29.80,NE,50,1.0,1.0,29,0.00,,,0.18,Wunderground v.1.15,2013-07-13 20:25:00,
2013-07-13 14:30:00,91.0,53.4,29.80,NE,51,1.0,1.0,28,0.00,,,0.18,Wunderground v.1.15,2013-07-13 20:30:00,
2013-07-13 14:34:00,91.2,52.5,29.80,NE,55,1.0,1.0,27,0.00,,,0.18,Wunderground v.1.15,2013-07-13 20:34:00,
2013-07-13 14:39:00,91.1,53.5,29.80,NE,55,1.0,1.0,28,0.00,,,0.18,Wunderground v.1.15,2013-07-13 20:39:00,
2013-07-13 14:44:00,91.2,52.5,29.79,East,82,1.0,2.0,27,0.00,,,0.18,Wunderground v.1.15,2013-07-13 20:44:00,
2013-07-13 14:49:00,91.2,52.5,29.79,East,82,1.0,1.0,27,0.00,,,0.18,Wunderground v.1.15,2013-07-13 20:49:00,
2013-07-13 14:54:00,91.3,52.6,29.79,East,82,1.0,3.0,27,0.00,,,0.18,Wunderground v.1.15,2013-07-13 20:54:00,
2013-07-13 15:00:00,91.4,52.7,29.79,ENE,78,1.0,1.0,27,0.00,,,0.18,Wunderground v.1.15,2013-07-13 21:00:00,
2013-07-13 15:10:00,92.0,51.1,29.79,East,81,2.0,3.0,25,0.00,,,0.18,Wunderground v.1.15,2013-07-13 21:10:00,
2013-07-13 15:15:00,91.9,51.1,29.78,East,81,2.0,3.0,25,0.00,,,0.18,Wunderground v.1.15,2013-07-13 21:15:00,
2013-07-13 15:20:00,92.0,52.2,29.78,East,81,1.0,1.0,26,0.00,,,0.18,Wunderground v.1.15,2013-07-13 21:20:00,
2013-07-13 15:25:00,92.3,52.5,29.78,East,82,0.0,1.0,26,0.00,,,0.18,Wunderground v.1.15,2013-07-13 21:25:00,
2013-07-13 15:30:00,92.5,52.6,29.78,East,82,0.0,3.0,26,0.00,,,0.18,Wunderground v.1.15,2013-07-13 21:30:00,
2013-07-13 15:35:00,92.7,51.7,29.78,East,82,0.0,3.0,25,0.00,,,0.18,Wunderground v.1.15,2013-07-13 21:35:00,
2013-07-13 15:39:00,92.8,51.8,29.78,East,82,0.0,1.0,25,0.00,,,0.18,Wunderground v.1.15,2013-07-13 21:39:00,
2013-07-13 15:44:00,92.9,53.0,29.78,East,82,0.0,1.0,26,0.00,,,0.18,Wunderground v.1.15,2013-07-13 21:44:00,
2013-07-13 15:49:00,93.1,52.1,29.78,East,82,0.0,0.0,25,0.00,,,0.18,Wunderground v.1.15,2013-07-13 21:49:00,
2013-07-13 15:54:00,93.2,51.0,29.77,East,82,0.0,1.0,24,0.00,,,0.18,Wunderground v.1.15,2013-07-13 21:54:00,
2013-07-13 15:59:00,93.3,52.2,29.77,East,82,0.0,0.0,25,0.00,,,0.18,Wunderground v.1.15,2013-07-13 21:59:00,
2013-07-13 16:04:00,93.6,51.4,29.77,East,82,0.0,1.0,24,0.00,,,0.18,Wunderground v.1.15,2013-07-13 22:04:00,
2013-07-13 16:10:00,94.1,49.4,29.77,East,82,0.0,1.0,22,0.00,,,0.18,Wunderground v.1.15,2013-07-13 22:10:00,
2013-07-13 16:15:00,94.4,52.0,29.76,East,82,0.0,1.0,24,0.00,,,0.18,Wunderground v.1.15,2013-07-13 22:15:00,
2013-07-13 16:20:00,94.8,51.2,29.76,East,82,0.0,1.0,23,0.00,,,0.18,Wunderground v.1.15,2013-07-13 22:20:00,
2013-07-13 16:25:00,95.3,49.2,29.76,East,82,0.0,1.0,21,0.00,,,0.18,Wunderground v.1.15,2013-07-13 22:25:00,
2013-07-13 16:30:00,95.7,48.2,29.76,East,82,0.0,3.0,20,0.00,,,0.18,Wunderground v.1.15,2013-07-13 22:30:00,
2013-07-13 16:35:00,95.9,49.7,29.76,East,82,0.0,3.0,21,0.00,,,0.18,Wunderground v.1.15,2013-07-13 22:35:00,
2013-07-13 16:39:00,95.7,49.5,29.76,East,82,0.0,0.0,21,0.00,,,0.18,Wunderground v.1.15,2013-07-13 22:39:00,
2013-07-13 16:44:00,95.8,50.9,29.75,East,82,0.0,0.0,22,0.00,,,0.18,Wunderground v.1.15,2013-07-13 22:44:00,
2013-07-13 16:49:00,95.4,48.0,29.75,East,82,0.0,0.0,20,0.00,,,0.18,Wunderground v.1.15,2013-07-13 22:49:00,
2013-07-13 16:54:00,95.0,48.9,29.75,East,82,0.0,1.0,21,0.00,,,0.18,Wunderground v.1.15,2013-07-13 22:54:00,
2013-07-13 16:59:00,94.8,48.8,29.75,East,82,0.0,1.0,21,0.00,,,0.18,Wunderground v.1.15,2013-07-13 22:59:00,
2013-07-13 17:04:00,94.6,48.6,29.75,East,82,0.0,1.0,21,0.00,,,0.18,Wunderground v.1.15,2013-07-13 23:04:00,
2013-07-13 17:10:00,94.4,48.4,29.75,East,82,0.0,1.0,21,0.00,,,0.18,Wunderground v.1.15,2013-07-13 23:10:00,
2013-07-13 17:15:00,94.5,48.5,29.75,East,82,1.0,1.0,21,0.00,,,0.18,Wunderground v.1.15,2013-07-13 23:15:00,
2013-07-13 17:20:00,94.7,48.7,29.75,East,82,0.0,0.0,21,0.00,,,0.18,Wunderground v.1.15,2013-07-13 23:20:00,
2013-07-13 17:25:00,94.9,48.9,29.75,WNW,303,0.0,0.0,21,0.00,,,0.18,Wunderground v.1.15,2013-07-13 23:25:00,
2013-07-13 17:30:00,94.5,49.8,29.74,NE,47,1.0,1.0,22,0.00,,,0.18,Wunderground v.1.15,2013-07-13 23:30:00,
2013-07-13 17:35:00,93.6,49.0,29.74,NE,48,0.0,1.0,22,0.00,,,0.18,Wunderground v.1.15,2013-07-13 23:35:00,
2013-07-13 17:40:00,92.9,50.8,29.74,NE,48,0.0,0.0,24,0.00,,,0.18,Wunderground v.1.15,2013-07-13 23:40:00,
2013-07-13 17:44:00,92.3,50.3,29.75,NE,48,0.0,0.0,24,0.00,,,0.18,Wunderground v.1.15,2013-07-13 23:44:00,
2013-07-13 17:49:00,91.9,50.0,29.74,NE,48,0.0,0.0,24,0.00,,,0.18,Wunderground v.1.15,2013-07-13 23:49:00,
2013-07-13 17:54:00,91.7,49.8,29.74,NE,48,0.0,1.0,24,0.00,,,0.18,Wunderground v.1.15,2013-07-13 23:54:00,
2013-07-13 17:59:00,91.4,49.5,29.74,NE,48,0.0,0.0,24,0.00,,,0.18,Wunderground v.1.15,2013-07-13 23:59:00,
2013-07-13 18:04:00,91.3,49.4,29.74,NE,48,0.0,0.0,24,0.00,,,0.18,Wunderground v.1.15,2013-07-14 00:04:00,
2013-07-13 18:09:00,91.1,49.3,29.74,NE,48,0.0,0.0,24,0.00,,,0.18,Wunderground v.1.15,2013-07-14 00:09:00,
2013-07-13 18:15:00,90.9,50.2,29.74,NE,48,0.0,0.0,25,0.00,,,0.18,Wunderground v.1.15,2013-07-14 00:15:00,
2013-07-13 18:25:00,90.4,49.8,29.75,NE,48,0.0,0.0,25,0.00,,,0.18,Wunderground v.1.15,2013-07-14 00:25:00,
2013-07-13 18:30:00,90.3,49.7,29.75,NE,48,0.0,3.0,25,0.00,,,0.18,Wunderground v.1.15,2013-07-14 00:30:00,
2013-07-13 18:35:00,90.2,49.6,29.75,NE,48,0.0,3.0,25,0.00,,,0.18,Wunderground v.1.15,2013-07-14 00:35:00,
2013-07-13 18:40:00,90.1,50.6,29.75,NW,315,0.0,2.0,26,0.00,,,0.18,Wunderground v.1.15,2013-07-14 00:40:00,
2013-07-13 18:49:00,89.5,52.1,29.75,NW,321,2.0,2.0,28,0.00,,,0.18,Wunderground v.1.15,2013-07-14 00:49:00,
2013-07-13 18:54:00,89.2,51.8,29.75,NW,321,1.0,3.0,28,0.00,,,0.18,Wunderground v.1.15,2013-07-14 00:54:00,
2013-07-13 18:59:00,89.2,50.8,29.75,NW,317,1.0,1.0,27,0.00,,,0.18,Wunderground v.1.15,2013-07-14 00:59:00,
2013-07-13 19:04:00,89.2,51.8,29.75,NW,317,1.0,1.0,28,0.00,,,0.18,Wunderground v.1.15,2013-07-14 01:04:00,
2013-07-13 19:10:00,89.2,49.8,29.76,NW,315,1.0,2.0,26,0.00,,,0.18,Wunderground v.1.15,2013-07-14 01:10:00,
2013-07-13 19:15:00,88.8,48.4,29.75,NW,323,2.0,3.0,25,0.00,,,0.18,Wunderground v.1.15,2013-07-14 01:15:00,
2013-07-13 19:20:00,88.3,50.1,29.76,NW,308,2.0,2.0,27,0.00,,,0.18,Wunderground v.1.15,2013-07-14 01:20:00,
2013-07-13 19:25:00,87.8,49.7,29.76,NW,317,2.0,2.0,27,0.00,,,0.18,Wunderground v.1.15,2013-07-14 01:25:00,
2013-07-13 19:30:00,87.4,50.3,29.76,NW,317,1.0,1.0,28,0.00,,,0.18,Wunderground v.1.15,2013-07-14 01:30:00,
2013-07-13 19:35:00,87.1,50.0,29.76,NW,323,1.0,1.0,28,0.00,,,0.18,Wunderground v.1.15,2013-07-14 01:35:00,
2013-07-13 19:40:00,86.9,48.9,29.76,NW,322,1.0,1.0,27,0.00,,,0.18,Wunderground v.1.15,2013-07-14 01:40:00,
2013-07-13 19:45:00,86.7,49.7,29.77,NW,322,1.0,1.0,28,0.00,,,0.18,Wunderground v.1.15,2013-07-14 01:45:00,
2013-07-13 19:54:00,85.9,51.8,29.78,WNW,298,4.0,9.0,31,0.00,,,0.18,Wunderground v.1.15,2013-07-14 01:54:00,
2013-07-13 19:59:00,85.3,52.1,29.79,NNW,336,5.0,5.0,32,0.00,,,0.18,Wunderground v.1.15,2013-07-14 01:59:00,
2013-07-13 20:04:00,84.5,52.2,29.79,WNW,284,4.0,6.0,33,0.00,,,0.18,Wunderground v.1.15,2013-07-14 02:04:00,
2013-07-13 20:09:00,83.8,52.4,29.79,WNW,298,4.0,4.0,34,0.00,,,0.18,Wunderground v.1.15,2013-07-14 02:09:00,
2013-07-13 20:15:00,83.2,51.9,29.79,NW,322,3.0,4.0,34,0.00,,,0.18,Wunderground v.1.15,2013-07-14 02:15:00,
2013-07-13 20:20:00,82.8,51.6,29.80,NW,321,3.0,5.0,34,0.00,,,0.18,Wunderground v.1.15,2013-07-14 02:20:00,
2013-07-13 20:25:00,82.5,52.1,29.80,NW,316,3.0,5.0,35,0.00,,,0.18,Wunderground v.1.15,2013-07-14 02:25:00,
2013-07-13 20:30:00,82.2,51.8,29.80,NW,308,3.0,4.0,35,0.00,,,0.18,Wunderground v.1.15,2013-07-14 02:30:00,
2013-07-13 20:35:00,81.9,51.6,29.80,NW,316,3.0,4.0,35,0.00,,,0.18,Wunderground v.1.15,2013-07-14 02:35:00,
2013-07-13 20:45:00,81.6,52.8,29.80,NW,325,2.0,4.0,37,0.00,,,0.18,Wunderground v.1.15,2013-07-14 02:45:00,
2013-07-13 20:54:00,81.3,53.3,29.80,NW,317,1.0,2.0,38,0.00,,,0.18,Wunderground v.1.15,2013-07-14 02:54:00,
2013-07-13 20:59:00,81.3,52.5,29.80,NW,314,2.0,2.0,37,0.00,,,0.18,Wunderground v.1.15,2013-07-14 02:59:00,
2013-07-13 21:04:00,81.2,52.4,29.80,NW,316,2.0,5.0,37,0.00,,,0.18,Wunderground v.1.15,2013-07-14 03:04:00,
2013-07-13 21:10:00,81.3,51.8,29.80,NW,304,2.0,4.0,36,0.00,,,0.18,Wunderground v.1.15,2013-07-14 03:10:00,
2013-07-13 21:15:00,81.4,51.1,29.81,NW,313,2.0,4.0,35,0.00,,,0.18,Wunderground v.1.15,2013-07-14 03:15:00,
2013-07-13 21:20:00,81.5,50.4,29.81,NNW,337,3.0,3.0,34,0.00,,,0.18,Wunderground v.1.15,2013-07-14 03:20:00,
2013-07-13 21:25:00,81.6,50.5,29.81,NW,325,2.0,3.0,34,0.00,,,0.18,Wunderground v.1.15,2013-07-14 03:25:00,
2013-07-13 21:30:00,81.6,50.5,29.81,NW,325,2.0,8.0,34,0.00,,,0.18,Wunderground v.1.15,2013-07-14 03:30:00,
2013-07-13 21:35:00,81.5,51.2,29.82,WNW,299,2.0,8.0,35,0.00,,,0.18,Wunderground v.1.15,2013-07-14 03:35:00,
2013-07-13 21:40:00,81.4,51.1,29.82,NNW,333,3.0,3.0,35,0.00,,,0.18,Wunderground v.1.15,2013-07-14 03:40:00,
2013-07-13 21:45:00,81.4,51.1,29.82,NW,320,3.0,4.0,35,0.00,,,0.18,Wunderground v.1.15,2013-07-14 03:45:00,
2013-07-13 21:49:00,81.3,51.0,29.81,NW,314,3.0,3.0,35,0.00,,,0.18,Wunderground v.1.15,2013-07-14 03:49:00,
2013-07-13 21:59:00,81.5,51.2,29.82,NW,317,2.0,2.0,35,0.00,,,0.18,Wunderground v.1.15,2013-07-14 03:59:00,
2013-07-13 22:05:00,81.6,50.5,29.82,NW,312,2.0,5.0,34,0.00,,,0.18,Wunderground v.1.15,2013-07-14 04:05:00,
2013-07-13 22:10:00,81.8,49.9,29.82,NW,313,1.0,1.0,33,0.00,,,0.18,Wunderground v.1.15,2013-07-14 04:10:00,
2013-07-13 22:15:00,81.9,50.0,29.83,NW,323,1.0,1.0,33,0.00,,,0.18,Wunderground v.1.15,2013-07-14 04:15:00,
2013-07-13 22:20:00,82.1,49.3,29.83,East,86,1.0,1.0,32,0.00,,,0.18,Wunderground v.1.15,2013-07-14 04:20:00,
2013-07-13 22:25:00,82.2,50.2,29.84,NNE,15,0.0,1.0,33,0.00,,,0.18,Wunderground v.1.15,2013-07-14 04:25:00,
2013-07-13 22:30:00,82.2,50.2,29.85,NNE,15,0.0,5.0,33,0.00,,,0.18,Wunderground v.1.15,2013-07-14 04:30:00,
2013-07-13 22:35:00,81.9,52.3,29.85,NNE,15,1.0,5.0,36,0.00,,,0.18,Wunderground v.1.15,2013-07-14 04:35:00,
2013-07-13 22:40:00,81.4,53.4,29.85,ESE,104,1.0,7.0,38,0.00,,,0.18,Wunderground v.1.15,2013-07-14 04:40:00,
2013-07-13 22:44:00,80.3,53.8,29.85,ESE,103,1.0,7.0,40,0.00,,,0.18,Wunderground v.1.15,2013-07-14 04:44:00,
2013-07-13 22:49:00,79.2,54.8,29.86,ESE,115,1.0,1.0,43,0.00,,,0.18,Wunderground v.1.15,2013-07-14 04:49:00,
2013-07-13 22:54:00,78.4,55.9,29.86,East,91,1.0,1.0,46,0.00,,,0.18,Wunderground v.1.15,2013-07-14 04:54:00,
2013-07-13 23:00:00,77.6,56.4,29.87,East,91,0.0,0.0,48,0.00,,,0.18,Wunderground v.1.15,2013-07-14 05:00:00,
2013-07-13 23:05:00,76.9,56.3,29.86,ENE,69,0.0,3.0,49,0.00,,,0.18,Wunderground v.1.15,2013-07-14 05:05:00,
2013-07-13 23:10:00,75.9,56.5,29.86,ENE,58,1.0,3.0,51,0.00,,,0.18,Wunderground v.1.15,2013-07-14 05:10:00,
2013-07-13 23:15:00,75.2,55.8,29.86,NE,49,1.0,3.0,51,0.00,,,0.18,Wunderground v.1.15,2013-07-14 05:15:00,
2013-07-13 23:20:00,75.0,55.1,29.86,East,82,1.0,1.0,50,0.00,,,0.18,Wunderground v.1.15,2013-07-14 05:20:00,
2013-07-13 23:25:00,75.1,54.6,29.86,ENE,61,1.0,1.0,49,0.00,,,0.18,Wunderground v.1.15,2013-07-14 05:25:00,
2013-07-13 23:29:00,75.2,53.6,29.86,East,93,1.0,2.0,47,0.00,,,0.18,Wunderground v.1.15,2013-07-14 05:29:00,
2013-07-13 23:34:00,75.3,53.1,29.86,ESE,103,2.0,2.0,46,0.00,,,0.18,Wunderground v.1.15,2013-07-14 05:34:00,
2013-07-13 23:39:00,75.2,53.0,29.86,ENE,74,2.0,2.0,46,0.00,,,0.18,Wunderground v.1.15,2013-07-14 05:39:00,
2013-07-13 23:44:00,75.1,52.9,29.86,East,81,2.0,2.0,46,0.00,,,0.18,Wunderground v.1.15,2013-07-14 05:44:00,
2013-07-13 23:49:00,74.9,53.3,29.86,NE,56,1.0,1.0,47,0.00,,,0.18,Wunderground v.1.15,2013-07-14 05:49:00,
2013-07-13 23:54:00,74.8,52.6,29.86,NE,49,1.0,1.0,46,0.00,,,0.18,Wunderground v.1.15,2013-07-14 05:54:00,